Find Starlink 11507

NORAD ID: 62519 Int'l Des: 2025-004 Owner: SPXS Country: US Constellation: starlink operational
LEOCIRCULAR

リアルタイム位置

3D地球を読み込み中...

Starlink 11507について

説明を読み込み中...

次回通過

Passes for default location (London). Set your location on the main map for personalized predictions.

高度履歴

Loading altitude history...

軌道要素

1 62519U 25004J 26125.25633820 .00341715 00000-0 25384-2 0 9994
2 62519 43.0034 89.8817 0004433 252.0783 107.9602 15.71025152 76109
Epoch: May 5, 2026 • Age: 8 hours

現在のステータス

高度 361.1 km
速度 7.70 km/s
衛星直下点 42.79°N, 110.84°E
打ち上げ日 Jan 8, 2025
運用期間 1.3 years
タイプ internet

技術仕様

分類 Payload
質量 960.00 kg
乾燥質量 910.00 kg
総質量 960.00 kg
長さ 0.30 m
直径 4.10 m
スパン 29.00 m
形状 Box + pan
製造者 SPXS
バスタイプ Starlink V2MD
フェーズステータス In Orbit
所有者/国 SPXS/US

Most Searched